• In Latvia
  • List of Countries
  • For 7 days
  • Water Temperature
  • Satellite Maps
  • Weather Map
  • Weather Widgets
  • user-avatar
    Login

    Hourly Weather Ordino

    Today, 27 May, Saturday

    Time Temperature Precipitation Wind Pressure Humidity
    00:00 +10°C° 0 mm 1 mps 634 mmHg 83%
    01:00 +10°C° 0 mm 1 mps 634 mmHg 82%
    02:00 +10°C° 0 mm 1 mps 634 mmHg 82%
    03:00 +9°C° 0 mm 1 mps 634 mmHg 81%
    04:00 +11°C° 0 mm 1 mps 634 mmHg 78%
    05:00 +12°C° 0 mm 1 mps 635 mmHg 74%
    06:00 +14°C° 0 mm 1 mps 636 mmHg 65%
    07:00 +16°C° 0 mm 2 mps 637 mmHg 59%
    08:00 +18°C° 0 mm 2 mps 637 mmHg 52%
    09:00 +20°C° 0 mm 2 mps 638 mmHg 46%
    10:00 +21°C° 0 mm 2 mps 638 mmHg 44%
    11:00 +23°C° 0 mm 2 mps 639 mmHg 43%
    12:00 +24°C° 0 mm 3 mps 639 mmHg 41%
    13:00 +24°C° 0.3 mm 3 mps 639 mmHg 43%
    14:00 +22°C° 0.3 mm 3 mps 639 mmHg 46%
    15:00 +22°C° 0.3 mm 3 mps 638 mmHg 48%
    16:00 +21°C° 0.2 mm 3 mps 638 mmHg 53%
    17:00 +20°C° 0.2 mm 2 mps 638 mmHg 59%
    18:00 +18°C° 0.2 mm 2 mps 637 mmHg 64%
    19:00 +16°C° 0.2 mm 2 mps 637 mmHg 71%
    20:00 +14°C° 0.2 mm 2 mps 636 mmHg 77%
    21:00 +12°C° 0.2 mm 1 mps 636 mmHg 83%
    22:00 +12°C° 0.1 mm 1 mps 636 mmHg 84%
    23:00 +11°C° 0.1 mm 1 mps 636 mmHg 84%

    Tomorrow, 28 May, Sunday

    Time Temperature Precipitation Wind Pressure Humidity
    00:00 +11°C° 0.1 mm 1 mps 636 mmHg 84%
    01:00 +11°C° 0 mm 1 mps 635 mmHg 84%
    02:00 +9°C° 0 mm 2 mps 635 mmHg 83%
    03:00 +9°C° 0 mm 2 mps 635 mmHg 82%
    04:00 +10°C° 0 mm 2 mps 635 mmHg 77%
    05:00 +12°C° 0 mm 2 mps 636 mmHg 72%
    06:00 +13°C° 0 mm 2 mps 636 mmHg 68%
    07:00 +16°C° 0 mm 2 mps 637 mmHg 58%
    08:00 +18°C° 0 mm 2 mps 638 mmHg 49%
    09:00 +20°C° 0 mm 2 mps 639 mmHg 40%
    10:00 +21°C° 0 mm 3 mps 639 mmHg 38%
    11:00 +22°C° 0 mm 3 mps 639 mmHg 36%
    12:00 +24°C° 0 mm 3 mps 640 mmHg 35%
    13:00 +24°C° 0 mm 3 mps 639 mmHg 35%
    14:00 +24°C° 0 mm 3 mps 639 mmHg 36%
    15:00 +23°C° 0 mm 4 mps 639 mmHg 37%
    16:00 +22°C° 0 mm 3 mps 638 mmHg 42%
    17:00 +20°C° 0 mm 3 mps 637 mmHg 48%
    18:00 +19°C° 0 mm 2 mps 637 mmHg 54%
    19:00 +16°C° 0 mm 2 mps 636 mmHg 60%
    20:00 +14°C° 0 mm 2 mps 636 mmHg 65%
    21:00 +12°C° 0 mm 2 mps 635 mmHg 71%
    22:00 +10°C° 0 mm 2 mps 635 mmHg 71%
    23:00 +10°C° 0 mm 2 mps 634 mmHg 70%

    Day after tomorrow, 29 May, Monday

    Time Temperature Precipitation Wind Pressure Humidity
    00:00 +10°C° 0 mm 2 mps 634 mmHg 70%
    01:00 +9°C° 0 mm 2 mps 634 mmHg 66%
    02:00 +9°C° 0 mm 2 mps 633 mmHg 62%
    03:00 +9°C° 0 mm 2 mps 633 mmHg 58%
    04:00 +10°C° 0 mm 2 mps 634 mmHg 56%
    05:00 +12°C° 0 mm 1 mps 634 mmHg 55%
    06:00 +13°C° 0 mm 1 mps 635 mmHg 53%
    07:00 +15°C° 0 mm 2 mps 635 mmHg 47%
    08:00 +17°C° 0 mm 2 mps 636 mmHg 41%
    09:00 +19°C° 0 mm 2 mps 637 mmHg 35%
    10:00 +20°C° 0 mm 3 mps 637 mmHg 33%
    11:00 +20°C° 0 mm 3 mps 637 mmHg 32%
    12:00 +21°C° 0 mm 3 mps 638 mmHg 30%
    13:00 +21°C° 0.1 mm 3 mps 637 mmHg 31%
    14:00 +21°C° 0.1 mm 3 mps 637 mmHg 33%
    15:00 +21°C° 0.1 mm 4 mps 637 mmHg 35%
    16:00 +19°C° 0.1 mm 3 mps 636 mmHg 42%
    17:00 +18°C° 0.1 mm 2 mps 636 mmHg 50%
    18:00 +16°C° 0.1 mm 1 mps 635 mmHg 57%
    19:00 +15°C° 0.1 mm 1 mps 635 mmHg 63%
    20:00 +13°C° 0.1 mm 1 mps 635 mmHg 68%
    21:00 +11°C° 0.1 mm 1 mps 634 mmHg 74%
    22:00 +11°C° 0 mm 1 mps 634 mmHg 75%
    23:00 +10°C° 0 mm 1 mps 634 mmHg 76%

    30 May, Tuesday

    Time Temperature Precipitation Wind Pressure Humidity
    00:00 +10°C° 0 mm 1 mps 634 mmHg 77%
    01:00 +9°C° 0 mm 1 mps 633 mmHg 77%
    02:00 +8°C° 0 mm 1 mps 633 mmHg 77%
    03:00 +7°C° 0 mm 1 mps 632 mmHg 76%
    04:00 +9°C° 0 mm 1 mps 633 mmHg 72%
    05:00 +11°C° 0 mm 1 mps 634 mmHg 67%
    06:00 +12°C° 0 mm 1 mps 635 mmHg 63%
    07:00 +14°C° 0 mm 1 mps 636 mmHg 57%
    08:00 +15°C° 0 mm 1 mps 636 mmHg 50%
    09:00 +17°C° 0 mm 2 mps 637 mmHg 44%
    10:00 +18°C° 0.1 mm 2 mps 637 mmHg 44%
    11:00 +18°C° 0.1 mm 2 mps 638 mmHg 45%
    12:00 +19°C° 0.1 mm 2 mps 638 mmHg 45%
    13:00 +19°C° 0.4 mm 2 mps 638 mmHg 46%
    14:00 +18°C° 0.4 mm 2 mps 637 mmHg 47%
    15:00 +18°C° 0.4 mm 2 mps 637 mmHg 49%
    16:00 +17°C° 0.3 mm 2 mps 637 mmHg 54%
    17:00 +16°C° 0.3 mm 2 mps 637 mmHg 60%
    18:00 +15°C° 0.3 mm 1 mps 636 mmHg 66%
    19:00 +13°C° 0.1 mm 1 mps 636 mmHg 71%
    20:00 +12°C° 0.1 mm 1 mps 636 mmHg 77%
    21:00 +9°C° 0.1 mm 0 mps 636 mmHg 82%
    22:00 +10°C° 0.1 mm 1 mps 636 mmHg 84%
    23:00 +10°C° 0.1 mm 1 mps 636 mmHg 85%

    31 May, Wednesday

    Time Temperature Precipitation Wind Pressure Humidity
    00:00 +10°C° 0.1 mm 1 mps 636 mmHg 86%
    01:00 +10°C° 0.5 mm 1 mps 636 mmHg 88%
    02:00 +10°C° 0.5 mm 1 mps 636 mmHg 89%
    03:00 +10°C° 0.5 mm 1 mps 635 mmHg 91%
    04:00 +10°C° 1.2 mm 1 mps 636 mmHg 92%
    05:00 +10°C° 1.2 mm 1 mps 636 mmHg 92%
    06:00 +10°C° 1.2 mm 1 mps 636 mmHg 93%
    07:00 +10°C° 0.7 mm 1 mps 636 mmHg 90%
    08:00 +11°C° 0.7 mm 1 mps 637 mmHg 87%
    09:00 +11°C° 0.7 mm 1 mps 637 mmHg 84%
    10:00 +13°C° 0.4 mm 1 mps 637 mmHg 78%
    11:00 +14°C° 0.4 mm 1 mps 638 mmHg 72%
    12:00 +15°C° 0.4 mm 1 mps 638 mmHg 65%
    13:00 +15°C° 0.4 mm 1 mps 638 mmHg 64%
    14:00 +15°C° 0.4 mm 1 mps 638 mmHg 62%
    15:00 +16°C° 0.4 mm 1 mps 637 mmHg 60%
    16:00 +15°C° 0.5 mm 1 mps 637 mmHg 66%
    17:00 +15°C° 0.5 mm 1 mps 637 mmHg 71%
    18:00 +14°C° 0.5 mm 1 mps 637 mmHg 76%
    19:00 +11°C° 0.5 mm 0 mps 636 mmHg 81%
    20:00 +10°C° 0.5 mm 0 mps 636 mmHg 85%
    21:00 +8°C° 0.5 mm 0 mps 636 mmHg 89%
    22:00 +8°C° 0.4 mm 0 mps 635 mmHg 89%
    23:00 +8°C° 0.4 mm 0 mps 635 mmHg 89%

    1 June, Thursday

    Time Temperature Precipitation Wind Pressure Humidity
    00:00 +8°C° 0.4 mm 0 mps 635 mmHg 88%
    01:00 +7°C° 0.1 mm 0 mps 635 mmHg 89%
    02:00 +7°C° 0.1 mm 0 mps 634 mmHg 89%
    03:00 +8°C° 0.1 mm 1 mps 634 mmHg 89%
    04:00 +8°C° 0 mm 0 mps 635 mmHg 86%
    05:00 +10°C° 0 mm 0 mps 636 mmHg 83%
    06:00 +11°C° 0 mm 0 mps 636 mmHg 80%
    07:00 +13°C° 0 mm 0 mps 637 mmHg 73%
    08:00 +15°C° 0 mm 0 mps 638 mmHg 65%
    09:00 +18°C° 0 mm 1 mps 638 mmHg 58%
    10:00 +19°C° 0.2 mm 1 mps 638 mmHg 58%
    11:00 +19°C° 0.2 mm 1 mps 638 mmHg 58%
    12:00 +19°C° 0.2 mm 1 mps 638 mmHg 58%
    13:00 +19°C° 0.5 mm 1 mps 638 mmHg 60%
    14:00 +19°C° 0.5 mm 1 mps 637 mmHg 62%
    15:00 +19°C° 0.5 mm 1 mps 637 mmHg 63%
    16:00 +18°C° 0.5 mm 1 mps 637 mmHg 67%
    17:00 +18°C° 0.5 mm 1 mps 637 mmHg 72%
    18:00 +16°C° 0.5 mm 1 mps 637 mmHg 76%
    19:00 +14°C° 0.1 mm 1 mps 636 mmHg 81%
    20:00 +12°C° 0.1 mm 1 mps 635 mmHg 86%
    21:00 +10°C° 0.1 mm 1 mps 635 mmHg 91%
    22:00 +9°C° 0 mm 1 mps 635 mmHg 91%
    23:00 +9°C° 0 mm 1 mps 634 mmHg 91%
    Show more